Location: Auckland
(36.8670°S, 174.7670°E)
Time: 08:24:47
(UTC+12:00)

Courier 1B Rocket - Pass Details

Date: 26 July 2019
Orbit: 920 x 1202 km, 28.3° (Epoch: 24 August)

Event Time Altitude Azimuth Distance (km) Brightness Sun altitude
Rises 06:34:29 0° 275° (W) 4,087 - -10.3°
Exits shadow 06:36:47 - 280° (W) 3,357 7.3 -9.8°
Reaches altitude 10° 06:37:38 10° 283° (WNW) 3,100 7.1 -9.7°
Maximum altitude 06:44:26 35° 345° (NNW) 1,752 6.4 -8.4°
Drops below altitude 10° 06:50:53 10° 48° (NE) 2,931 8.8 -7.1°
Sets 06:53:48 0° 56° (ENE) 3,839 10.0 -6.6°
